This is the latest recevied weather packets stored in our database for station/object W4FXD. If no packets are shown the sender has not sent any weather packets the latest 1 day(s).
| Time | Temp. | Humidity | Pressure | Rain* | Wind** | Luminosity | Snow |
|---|---|---|---|---|---|---|---|
| 1778050862 | 21.11° C | 60% | 1010.3 hPa | 0 mm | 0.45 m/s, 159° | 0 W/m² | - |
| 1778050560 | 20.56° C | 61% | 1010.4 hPa | 0 mm | 0.45 m/s, 182° | 0 W/m² | - |
| 1778050256 | 20.56° C | 63% | 1010.3 hPa | 0 mm | 0 m/s | 0 W/m² | - |
| 1778049953 | 20.56° C | 63% | 1010.3 hPa | 0 mm | 0.89 m/s, 173° | 0 W/m² | - |
| 1778049648 | 20° C | 62% | 1010.4 hPa | 0 mm | 0.89 m/s, 180° | 0 W/m² | - |
| 1778049347 | 20° C | 62% | 1010.6 hPa | 0 mm | 0.45 m/s, 157° | 0 W/m² | - |
| 1778049044 | 20° C | 63% | 1010.6 hPa | 0 mm | 1.34 m/s, 185° | 0 W/m² | - |
| 1778048742 | 19.44° C | 66% | 1010.6 hPa | 0 mm | 0 m/s | 0 W/m² | - |
| 1778048439 | 18.89° C | 65% | 1010.7 hPa | 0 mm | 0 m/s | 0 W/m² | - |
| 1778048135 | 18.89° C | 66% | 1011 hPa | 0 mm | 0.45 m/s, 152° | 0 W/m² | - |
| 1778047833 | 18.89° C | 66% | 1011.1 hPa | 0 mm | 0 m/s | 0 W/m² | - |
| 1778047531 | 18.89° C | 66% | 1011.2 hPa | 0 mm | 0 m/s | 0 W/m² | - |
| 1778047228 | 18.89° C | 67% | 1011.3 hPa | 0 mm | 0 m/s | 0 W/m² | - |
| 1778046925 | 18.89° C | 66% | 1011.6 hPa | 0 mm | 0 m/s | 0 W/m² | - |
| 1778046621 | 18.33° C | 66% | 1011.3 hPa | 0 mm | 0 m/s | 0 W/m² | - |
| 1778046319 | 18.33° C | 68% | 1011.7 hPa | 0 mm | 0 m/s | 0 W/m² | - |
| 1778046014 | 17.78° C | 70% | 1011.5 hPa | 0 mm | 0.89 m/s, 354° | 0 W/m² | - |
| 1778045713 | 17.78° C | 71% | 1011.3 hPa | 0 mm | 0.45 m/s, 72° | 0 W/m² | - |
| 1778045411 | 18.33° C | 71% | 1011.7 hPa | 0 mm | 0 m/s | 0 W/m² | - |
| 1778045109 | 18.89° C | 70% | 1011.4 hPa | 1.27 mm | 0.45 m/s, 40° | 0 W/m² | - |
| 1778044806 | 20° C | 63% | 1011.3 hPa | 1.27 mm | 0.45 m/s, 143° | 0 W/m² | - |
| 1778044503 | 20.56° C | 56% | 1011.5 hPa | 0 mm | 0.45 m/s, 150° | 0 W/m² | - |
| 1778044200 | 20° C | 56% | 1011.4 hPa | 0 mm | 0.45 m/s, 133° | 0 W/m² | - |
| 1778043898 | 20° C | 57% | 1011.4 hPa | 0 mm | 0.45 m/s, 338° | 0 W/m² | - |
| 1778043595 | 20° C | 57% | 1011.6 hPa | 0 mm | 0 m/s | 0 W/m² | - |
* Rain latest hour (hover to see other rain measurements)
** Current wind speed in m/s (hover to see current wind gust speed)